Regional Weather Roundup
Issued by NWS

Home | Current Version | Previous Version | Text Only | Print | Product List | Glossary Off
Versions: 1 2 3 4 5 6 7 8 9 10 11 12 13 14 15 16 17 18 19 20 21 22 23 24 25 26 27 28 29 30 31 32 33 34 35 36 37 38 39 40 41 42 43 44 45 46 47 48 49 50

932
ASUS45 KBOU 101110
RWRCO

WEATHER ROUNDUP FOR COLORADO
NATIONAL WEATHER SERVICE DENVER/BOULDER CO
400 AM MST SUN DEC 10 2017

NOTE: "FAIR" INDICATES FEW OR NO CLOUDS BELOW 12000 FEET WITH NO
SIGNIFICANT WEATHER AND/OR OBSTRUCTIONS TO VISIBILITY.

COZ001>005-013-030-031-101200-
...NORTHWEST COLORADO...

CITY           SKY/WX    TMP DP  RH WIND       PRES   REMARKS
CRAIG          FAIR       4  -1  80 CALM      30.58F
HAYDEN         FAIR      17   8  67 E12       30.58F WCI   4
MEEKER         FAIR      13   4  67 NE6       30.57F WCI   4
RABBIT EARS PA FAIR      19   7  58 W8        30.55F WCI   9
STEAMBOAT SPGS FAIR      10   8  90 CALM      30.58F
WALDEN         FAIR       3  -4  72 SE6       30.56F WCI  -8
$$

COZ006>008-011-101200-
...WEST CENTRAL VALLEYS...

CITY           SKY/WX    TMP DP  RH WIND       PRES   REMARKS
GRAND JUNCTION FAIR      19   5  54 E7        30.58R WCI  10
MONTROSE       FAIR      15   1  53 S7        30.60S WCI   5
EAGLE          FAIR       7   3  84 E5        30.69R WCI  -2
RIFLE          FAIR      15   6  67 CALM      30.61S
DELTA          FAIR      17   1  49 CALM      30.60S
NUCLA          FAIR      18  -8  32 CALM      30.60R
$$

COZ017>023-064>068-101200-
...SOUTHWEST COLORADO...

CITY           SKY/WX    TMP DP  RH WIND       PRES   REMARKS
DURANGO        FAIR      13   0  56 N7        30.51S WCI   3
CORTEZ         FAIR       7  -5  57 CALM      30.53R
PAGOSA SPRINGS FAIR      14  -1  50 CALM      30.52S
TELLURIDE      FAIR      24 -13  19 SE8       30.58S WCI  15
WOLF CREEK PAS FAIR      27 -24  10 NW5       30.65S WCI  21
$$

COZ009-010-012-014-032>034-037-058>063-101200-
...CENTRAL COLORADO...

CITY           SKY/WX    TMP DP  RH WIND       PRES   REMARKS
ASPEN          FAIR      13   1  59 S5        30.57F WCI   5
BUENA VISTA    FAIR      13  -3  49 W6        30.53S WCI   4
COPPER MTN     NOT AVBL
BERTHOUD PASS  FAIR      16   5  62 NW25      30.55F WCI  -3
COTTONWOOD PAS FAIR      36 -26   6 W5        30.53F
GUNNISON       FAIR       3  -3  76 CALM      30.63S
KREMMLING      CLOUDY     5   0  78 CALM      30.67S HAZE
LEADVILLE      FAIR      12 -10  36 NE12      30.54F WCI  -2
MONARCH PASS   FAIR      23 -18  15 W14       30.69S WCI  11
SALIDA         FAIR      25  -1  32 W3        30.61S
SUNLIGHT       FAIR      23  -9  23 NW7       30.62F WCI  15
WILKERSON PASS FAIR      30 -15  13 N5        30.57S WCI  25
$$

COZ069>075-101200-
...SAN LUIS VALLEY/SANGRE DE CRISTO MOUNTAINS...

CITY           SKY/WX    TMP DP  RH WIND       PRES   REMARKS
ALAMOSA        FAIR       3  -4  72 W7        30.54R WCI  -9
DEL NORTE      FAIR      21 -12  23 W9        30.55R WCI  10
LA VETA PASS   FAIR      25  -4  28 SW16        N/A  WCI  12
SAGUACHE       FAIR      16  -6  38 E3        30.55R
$$

COZ035-036-038>040-101200-
...NORTHERN COLORADO FRONT RANGE...

CITY           SKY/WX    TMP DP  RH WIND       PRES   REMARKS
DENVER INTL AP FAIR      34  -3  20 SW13      30.38F WCI  25
DMNS CITY PARK NOT AVBL
AURORA         CLEAR     32  -2  22 S9        30.40F WCI  25
FRONT RANGE AP FAIR      31   0  25 S9        30.39F WCI  23
ERIE MUNI ARPT FAIR      19   8  62 CALM      30.43F
BOULDER MUN AP FAIR      46   0  14 SW5       30.37F
CENTENNIAL     FAIR      31  -1  25 S5        30.40F WCI  26
BROOMFIELD     FAIR      37  -2  18 W5        30.39S
FORT COLLINS   FAIR      31   5  33 E6        30.38S WCI  25
LONGMONT       FAIR      24   9  53 CALM      30.39F
$$

COZ041-046-047-076>085-087-088-101200-
...PIKES PEAK/PALMER DIVIDE AND SOUTHERN FOOTHILLS...

CITY           SKY/WX    TMP DP  RH WIND       PRES   REMARKS
COLO. SPRINGS  FAIR      28  -2  27 N7        30.43F WCI  21
A. F. ACADEMY  FAIR      20  -4  33 N10       30.42F WCI   9
SCHRIEVER AFB  FAIR      35  -6  17 NW7       30.43F WCI  29
CHEYENNE MTN   FAIR      39  -9  12 CALM      30.39S
ELLICOTT         N/A    N/A N/A N/A CALM      30.41F
FALCON         FAIR      28  -7  22 NW9       30.44S WCI  19
FORT CARSON    FAIR      27  -3  27 NW12      30.41S WCI  16
LIMON          FAIR      13  -2  51 NW3       30.39F
MONUMENT HILL  FAIR      23   0  36 SW9       30.44F WCI  13
CANON CITY     FAIR      36   0  21 W16       30.42F
WALSENBURG     FAIR      32   0  25 SW14      30.43F WCI  22
TRINIDAD       FAIR      28   4  35 W16       30.44F WCI  16
$$

COZ042>045-048>051-090-091-101200-
...NORTHEAST COLORADO...

CITY           SKY/WX    TMP DP  RH WIND       PRES   REMARKS
GREELEY ARPT   FAIR      16   7  67 CALM      30.39F
AKRON          FAIR      32   1  26 W15       30.36F WCI  22
BURLINGTON     FAIR      27   5  39 W9        30.34F WCI  18
WRAY           FAIR      34   5  29 W13       30.32S WCI  25
YUMA           FAIR      32   5  32 W13       30.34S WCI  22
STERLING       FAIR      23   9  54 S8        30.35S WCI  14
HOLYOKE        FAIR      37   5  25 W13       30.30S
FORT MORGAN    FAIR      25   4  41 W10       30.38S WCI  15
$$

COZ086-089-092>099-101200-
...SOUTHEAST COLORADO...

CITY           SKY/WX    TMP DP  RH WIND       PRES   REMARKS
PUEBLO         FAIR      19   2  47 W10       30.42F WCI   7
LA JUNTA       FAIR      26   4  38 SW7       30.41R WCI  18
LAMAR          FAIR      27   3  35 W12       30.38S WCI  17
SPRINGFIELD      N/A     24   4  42 W10       30.38S WCI  14
$$




USA.gov is the U.S. government's official web portal to all federal, state and local government web resources and services.